Portada
METAR-TAF:

METAR-TAF

Aeroports :

Sint Eustatius, Antilles Neerlandeses

latitud: 17-29N, longitud: 062-59W, altitud: 38 m

Observació

L'informe es va fer fa 53 minuts, a les 20:55 UTC
Vent 7 kt del Sud/Sud-Est, variant entre Est/Sud-Est i Sud/Sud-Oest
Temperatura 29°C
Humitat 66%
Pressió 1014 hPa

METAR: TNCE 272055Z AUTO 16007KT 110V200 //// // ///////// 29/22 Q1014 RE//

Hora: 17:48 (21:48 UTC)


TAF: manca

Observacions i pronòstics meteorològics de més de 4000 aeroports (METAR i TAF).

Les estacions disponibles són els punts grocs i vermells al mapa.

Posi el ratolí al punt desitjat per veure el nom de l'estació.

Feu clic per veure les observacions i els pronòstics meteorològics.

Per canviar el mapa: feu clic els botons verds amb una creu de color negre per apropar; al botó verd amb un guió per allunyar la imatge; o en les fletxes verdes per a mapes adjacents.


METAR-TAF: